Location: Unspecified
(0.0000°N, 0.0000°E)
Time: 02:25:52
(UTC+00:00)

STARLINK-2018 - Pass Details

Date: 24 February 2021
Orbit: 317 x 319 km, 53.1° (Epoch: 23 February)

Event Time Altitude Azimuth Distance (km) Brightness Sun altitude
Exits shadow 05:21:29 - 347° (NNW) 1,655 5.8 -12.8°
Reaches altitude 10° 05:22:38 10° 356° (N) 1,221 5.3 -12.5°
Maximum altitude 05:24:59 26° 56° (NE) 684 4.7 -11.9°
Drops below altitude 10° 05:27:20 10° 116° (ESE) 1,230 6.8 -11.3°
Sets 05:29:29 0° 129° (SE) 2,066 7.7 -10.8°
